sat.trackr.live / text

‹ back to catalog

STARLINK-32619

NORAD 62074 · 2024-217T

PAYLOAD ACTIVE UNKNOWN

§ Identity

Operator
Country
US
Launch date
2024-11-24
Launch site
AFWTR
Launch vehicle
Mass (kg)
RCS (m²)

Purposes: comms

External: N2YO · Heavens-Above · Gunter

§ Orbital elements

Epoch: 2026-09-21T16:51:59.101632Z

Period
93.85 min
Inclination
53.1591°
Eccentricity
0.0001146
Mean motion
15.34413302 rev/d
Perigee alt
461.9 km
Apogee alt
463.4 km
Semi-major
6,840.8 km
B*
9.0655e-4
RAAN
359.7628°
Arg perigee
76.1957°
Mean anomaly
283.9173°
Rev number
10,348

§ Raw data

STARLINK-326191 62074U 24217T   26264.70276738  .00030390  00000+0  90655-3 0  99972 62074  53.1591 359.7628 0001146  76.1957 283.9173 15.34413302103487

JSON: /api/v1/satellites/62074 · /tle

For live sub-satellite position, see the globe view (requires WebGL).

§ Visibility from observer

Set your observer location to see the next 7 days of passes ≥ 10°. The values pass through the URL so the page stays shareable.

No JS? Fill the form by hand. The geolocation button needs JavaScript.